TimeEST,TemperatureF,Dew PointF,Humidity,Sea Level PressureIn,VisibilityMPH,Wind Direction,Wind SpeedMPH,Gust SpeedMPH,PrecipitationIn,Events,Conditions,WindDirDegrees,DateUTC
12:53 AM,28.9,25.0,85,30.25,10.0,NNW,3.5,-,N/A,,Clear,330,2013-02-26 05:53:00
1:53 AM,28.0,24.1,85,30.25,10.0,NW,3.5,-,N/A,,Clear,320,2013-02-26 06:53:00
2:53 AM,28.9,26.1,89,30.23,10.0,Calm,Calm,-,N/A,,Clear,0,2013-02-26 07:53:00
3:53 AM,27.0,25.0,92,30.29,10.0,WNW,3.5,-,N/A,,Clear,300,2013-02-26 08:53:00
4:53 AM,28.9,26.1,89,30.30,10.0,NNW,3.5,-,N/A,,Clear,330,2013-02-26 09:53:00
5:53 AM,28.9,27.0,92,30.29,10.0,NNW,3.5,-,N/A,,Clear,330,2013-02-26 10:53:00
6:53 AM,28.9,27.0,92,30.30,10.0,North,3.5,-,N/A,,Clear,350,2013-02-26 11:53:00
7:53 AM,37.0,33.1,86,30.32,10.0,North,5.8,-,N/A,,Clear,10,2013-02-26 12:53:00
8:53 AM,39.9,28.9,65,30.33,10.0,North,6.9,-,N/A,,Clear,10,2013-02-26 13:53:00
9:53 AM,42.1,25.0,51,30.32,10.0,ENE,10.4,17.3,N/A,,Clear,70,2013-02-26 14:53:00
10:53 AM,43.0,24.1,47,30.33,10.0,East,10.4,-,N/A,,Clear,100,2013-02-26 15:53:00
11:53 AM,43.0,26.1,51,30.31,10.0,East,11.5,-,N/A,,Clear,90,2013-02-26 16:53:00
12:53 PM,43.0,27.0,53,30.32,10.0,SE,12.7,-,N/A,,Partly Cloudy,130,2013-02-26 17:53:00
1:53 PM,42.1,27.0,55,30.30,10.0,ESE,12.7,18.4,N/A,,Clear,110,2013-02-26 18:53:00
2:53 PM,41.0,28.0,60,30.28,10.0,East,10.4,-,N/A,,Clear,90,2013-02-26 19:53:00
3:53 PM,39.9,28.0,63,30.29,10.0,ESE,8.1,-,N/A,,Clear,110,2013-02-26 20:53:00
4:53 PM,39.0,28.0,65,30.26,10.0,East,8.1,-,N/A,,Clear,90,2013-02-26 21:53:00
5:29 PM,37.4,28.4,70,30.27,10.0,East,4.6,-,N/A,,Mostly Cloudy,100,2013-02-26 22:29:00
5:44 PM,37.4,28.4,70,30.27,10.0,East,6.9,-,N/A,,Scattered Clouds,100,2013-02-26 22:44:00
5:53 PM,37.9,28.9,70,30.27,10.0,East,6.9,-,N/A,,Scattered Clouds,100,2013-02-26 22:53:00
6:53 PM,39.0,30.0,70,30.25,10.0,East,6.9,-,N/A,,Partly Cloudy,90,2013-02-26 23:53:00
7:53 PM,39.9,30.9,70,30.23,10.0,East,10.4,-,N/A,,Clear,90,2013-02-27 00:53:00
8:17 PM,39.2,33.8,81,30.23,10.0,East,11.5,-,N/A,,Mostly Cloudy,100,2013-02-27 01:17:00
8:53 PM,41.0,34.0,76,30.22,10.0,East,11.5,-,N/A,,Mostly Cloudy,100,2013-02-27 01:53:00
9:17 PM,39.2,35.6,87,30.21,10.0,East,11.5,-,N/A,,Scattered Clouds,90,2013-02-27 02:17:00
9:53 PM,41.0,35.1,79,30.19,10.0,East,12.7,-,N/A,,Scattered Clouds,90,2013-02-27 02:53:00
10:53 PM,41.0,34.0,76,30.15,10.0,East,11.5,19.6,N/A,,Overcast,90,2013-02-27 03:53:00
11:53 PM,42.1,36.0,79,30.12,10.0,East,15.0,23.0,N/A,,Overcast,90,2013-02-27 04:53:00